Simultaneous Nadir Overpasses (SNOs) Predictions

Prediction of SNOs between AQUA and GOES-15 Satellite Orbit:

Table of predicted SNOs for the next 14.0 days since TLE Epoch: 12/12/2014
Index Date Time (AQUA) AQUA Lat,Lon GOES-15 Lat,Lon Distance(km) Time Diff (sec)
1 12/12/2014 22:29:16 0.49,-133.45 0.06,-135.38 220.31 80
2 12/13/2014 10:50:32 0.58,-138.61 -0.08,-135.43 361.56 80
3 12/15/2014 10:38:21 -0.03,-135.65 -0.07,-135.44 23.73 80
4 12/17/2014 10:26:10 -0.66,-132.69 -0.07,-135.45 313.67 80
5 12/17/2014 22:47:34 -0.46,-137.88 0.08,-135.41 281.46 80
6 12/19/2014 22:35:23 0.21,-134.93 0.08,-135.41 55.32 80
7 12/21/2014 22:23:10 0.78,-131.95 0.07,-135.40 391.32 80
8 12/22/2014 10:44:25 0.27,-137.12 -0.08,-135.44 190.61 80
9 12/24/2014 10:32:12 -0.34,-134.15 -0.08,-135.42 144.63 80
10 12/24/2014 22:53:36 -0.75,-139.34 0.09,-135.37 451.48 80
11 12/26/2014 10:20:00 -0.97,-131.18 -0.08,-135.40 479.49 80




NCC Satellite Simultaneous Nadir Overpasses (SNOs) Prediction Service
